Torna al catalogo

STARLINK-5888

AttivoComunicazioniSSO
NORAD 56348·PAYLOAD·🇺🇸 United States

Lanciato Apr 27, 2023 da Vandenberg Space Force Base

Loading…

Prossimi Passaggi (prossime 24 ore)

TLE

AggiornatoSource: CelesTrak SupGP

Epoca: Sep 14, 2026, 20:55 UTC

1 56348C 23058AH  26257.87201389  .00774640  00000+0  40422-1 0  2571
2 56348  97.2857 251.9529 0001643  83.6031 101.0041 15.15630978    17

Traccia STARLINK-5888 in tempo reale con AllMySat

Download on the App Store